{"data":{"norad_id":67403,"intl_designator":"2025-315C","name":"SHIJIAN-29B (SJ-29B)","alt_names":[],"object_type":"PAYLOAD","status":"ACTIVE","operator":null,"country":"PRC","launch_date":"2025-12-30","launch_site_code":"WSC","launch_vehicle":null,"mission":null,"orbit_class":"UNKNOWN","rcs_meters":null,"size_class":null,"mass_kg":null,"dimensions":null,"purposes":["comms"],"wikipedia_slug":null,"has_3d_model":false,"image_url":null,"decayed_at":null,"tle_current":{"epoch":"2026-05-24T22:57:39.742272Z","epoch_age_seconds":68970,"freshness":"FRESH","line1":"1 67403U 25315C   26144.95670998 -.00000076  00000+0  00000+0 0  9998","line2":"2 67403   3.3399  95.6590 0007572 351.4949 213.7257  1.00273628  1455","mean_motion":1.00273628,"eccentricity":0.0007572,"inclination_deg":3.3399,"raan_deg":95.659,"arg_perigee_deg":351.4949,"mean_anomaly_deg":213.7257,"bstar":0,"rev_number":145,"period_min":1436.0705089877,"perigee_km":35754.151565469,"apogee_km":35818.005053133,"semimajor_km":42164.215309301,"source":"CELESTRAK","updated_at":"2026-05-25T13:38:14.189726Z"}}}